Regional Weather Roundup
Issued by NWS

Home | Current Version | Previous Version | Text Only | Print | Product List | Glossary On
Versions: 1 2 3 4 5 6 7 8 9 10 11 12 13 14 15 16 17 18 19 20 21 22 23 24 25 26 27 28 29 30 31 32 33 34 35 36 37 38 39 40 41 42 43 44 45 46 47 48 49 50
000
ASUS43 KDTX 232201
RWRMI
MICHIGAN HOURLY REGIONAL WEATHER ROUNDUP
NATIONAL WEATHER SERVICE DETROIT/PONTIAC MI
500 PM EST THU FEB 23 2017

NOTE: "FAIR" INDICATES FEW OR NO CLOUDS BELOW 12,000 FEET WITH NO
SIGNIFICANT WEATHER AND/OR OBSTRUCTION TO VISIBILITY.

MIZ047>049-052>055-059>063-066>070-074>076-081>083-232300-
SOUTHEAST LOWER MICHIGAN

CITY           SKY/WX    TMP DP  RH WIND       PRES   REMARKS
ADRIAN         CLOUDY    61  44  53 N6        29.77R
ALMA           CLOUDY    48  37  65 N9        29.83S
ANN ARBOR      CLOUDY    63  40  42 NW7       29.76S
BAD AXE        CLOUDY    42  37  79 NE7       29.86R
CARO           PTSUNNY   49  38  66 N5        29.83R
DETROIT CITY   CLOUDY    65  38  36 NW7       29.77R
DETROIT        PTSUNNY   64  40  41 NW8       29.76S
FLINT          MOSUNNY   54  41  61 NW9       29.81R
GROSSE ILE     PTSUNNY   55  45  68 CALM      29.75F
HILLSDALE      CLOUDY    57  43  58 NW5       29.76S
HOWELL         CLOUDY    54  40  59 N6        29.79F

CITY           SKY/WX    TMP DP  RH WIND       PRES   REMARKS
JACKSON        CLOUDY    57  43  59 N12       29.77S
LAMBERTVILLE   CLOUDY    65  44  46 CALM      29.76R
LANSING        CLOUDY    52  39  61 N7        29.80F
LAPEER         PTSUNNY   53  39  59 N8        29.82R
MASON          CLOUDY    54  43  68 N6        29.79S
MONROE         CLOUDY    64  49  58 N3        29.75S
MT. CLEMENS    PTSUNNY   59  46  60 N14       29.78R
PONTIAC        PTSUNNY   56  42  59 NW10      29.78R
PORT HOPE        N/A     39  35  86 N5        29.86R
PORT HURON     SUNNY     45  37  76 NE16      29.84R
TRI CITIES     CLOUDY    49  38  65 N12       29.84R
MIDLAND        FAIR      44  33  64 NW12      29.84S
TROY           CLOUDY    61  40  44 NW8       29.80R
SAGINAW HB     MOSUNNY   50  36  57 N6        29.83R
$$
MIZ043>046-050>051-056>058-064>065-071>073-077>080-232300-
SOUTHWEST LOWER MICHIGAN

CITY           SKY/WX    TMP DP  RH WIND       PRES   REMARKS
BATTLE CREEK   PTSUNNY   53  43  68 N6        29.78F
BENTON HARBOR  CLOUDY    40  36  86 N5        29.79F
BIG RAPIDS     CLOUDY    40  33  74 NE8       29.82F
COLDWATER      CLOUDY    55  44  65 NW5       29.78R
FREMONT        FAIR      44  34  67 NE9       29.79F
HOLLAND        CLOUDY    44  37  76 CALM      29.80S
GRAND RAPIDS   CLOUDY    50  38  63 NE5       29.78F
IONIA          FAIR      50  37  62 NE7       29.79F
KALAMAZOO      MOSUNNY   51  39  63 E3        29.78F
LUDINGTON      CLOUDY    38  32  78 NE7       29.82F WCI  33
MARSHALL       CLOUDY    55  43  62 N3        29.77S
MOUNT PLEASANT CLOUDY    43  34  69 N10       29.83F
MUSKEGON       CLOUDY    48  36  63 N9        29.80R
SOUTH HAVEN    CLOUDY    41  37  86 N3        29.79S
$$
MIZ016>042-232300-
NORTHERN LOWER MICHIGAN

CITY           SKY/WX    TMP DP  RH WIND       PRES   REMARKS
ALPENA         CLOUDY    41  32  70 NW8       29.85R
BEAVER ISLAND  SUNNY     37  26  62 N6        29.89R WCI  33
BELLAIRE       CLOUDY    37  30  77 NW5       29.89R WCI  33
CADILLAC       CLOUDY    36  31  83 CALM      29.84S
CHARLEVOIX     SUNNY     36  28  72 N6        29.91R WCI  32
FRANKFORT      SUNNY     38  29  71 N8        29.87S WCI  32
GAYLORD        CLOUDY    37  27  67 NW5       29.84R WCI  33
GRAYLING       CLOUDY    38  31  77 N9        29.85S WCI  31
HARBOR SPRINGS MOSUNNY   38  27  62 N6        29.88R WCI  34
HOUGHTON LAKE  CLOUDY    37  31  78 W7        29.86R WCI  32
MANISTEE       CLOUDY    39  31  72 NE8       29.84F WCI  33
OSCODA         MOSUNNY   46  33  62 NW6       29.83R
PELLSTON       PTSUNNY   39  25  57 NW9       29.88R WCI  33
ROGERS CITY    CLOUDY    38  31  76 NW10G16   29.87R WCI  30
TRAVERSE CITY  PTSUNNY   38  28  67 N6        29.87S WCI  33
$$
MIZ007>008-015-232300-
EASTERN UPPER MICHIGAN

CITY           SKY/WX    TMP DP  RH WIND       PRES   REMARKS
KINROSS        CLOUDY    32  24  72 NW15      29.87R WCI  22
MACKINAC ISLAN CLOUDY    36  28  73 N8        29.86R WCI  29
NEWBERRY       PTSUNNY   32  21  63 N9G17     29.87S WCI  24
S. S. MARIE    CLOUDY    34  24  67 NW15G22   29.86R WCI  24
MUNISING         N/A     34  23  64 N10       29.89R WCI  26
$$
MIZ004>006-011>014-085-232300-
CENTRAL UPPER MICHIGAN

CITY           SKY/WX    TMP DP  RH WIND       PRES   REMARKS
MANISTIQUE     SUNNY     35  22  58 NW7G16    29.88R WCI  29
ESCANABA       PTSUNNY   37  24  59 N6        29.89R WCI  32
MENOMINEE      PTSUNNY   36  27  69 E13       29.88R WCI  27
SAWYER-GWINN   CLOUDY    32  27  80 NW5       29.87S WCI  27
$$
MIZ001>003-009>011-084-232300-
WESTERN UPPER MICHIGAN

CITY           SKY/WX    TMP DP  RH WIND       PRES   REMARKS
IRON MOUNTAIN  SUNNY     37  24  59 N7        29.86R WCI  32
HOUGHTON       MOSUNNY   31  20  63 NW14      29.87S WCI  21
COPPER HARBOR    N/A     33  24  69 N8        29.88S WCI  26
IRONWOOD       CLOUDY    30  24  78 W8        29.92R WCI  22
$$

ABBREVIATIONS USED IN REMARKS
   TC - TEMPERATURE IN CELSIUS
  WCI - WIND CHILL INDEX
   HX - HEAT INDEX
  VSB - VISIBILITY




USA.gov is the U.S. government's official web portal to all federal, state and local government web resources and services.